Tracking 18030 objects as of 28-March-2017
HD Live streaming from Space Station
objects crossing your sky now

MOZHAYETS

Track MOZHAYETS now!
10-day predictions
MOZHAYETS is classified as:


NORAD ID: 27560
Int'l Code: 2002-054B
Perigee: 679.0 km
Apogee: 737.2 km
Inclination: 98.2 °
Period: 98.8 minutes
Semi major axis: 7079 km
RCS: 1.03 m2 (large)
Launch date: November 28, 2002
Source: Commonwealth of Independent States (former USSR) (CIS)
Launch site: PLESETSK MISSILE AND SPACE COMPLEX (PKMTR)
Your satellite tracking list
Your tracking list is empty





NASA's NSSDC Master Catalog

Two Line Element Set (TLE):
1 27560U 02054B   17085.86355951 +.00000084 +00000-0 +28457-4 0  9996
2 27560 098.1935 221.5231 0041127 009.4549 109.1423 14.57596011760001
Source of the keplerian elements: AFSPC